This is the latest recevied weather packets stored in our database for station/object K1KOF. If no packets are shown the sender has not sent any weather packets the latest 10 day(s).
| Time | Temp. | Humidity | Pressure | Rain* | Wind** | Luminosity | Snow |
|---|---|---|---|---|---|---|---|
| 1778280961 | 20.56° C | 76% | 1024.3 hPa | 0 mm | - | 37 W/m² | - |
| 1778280657 | 20.56° C | 73% | 1024.7 hPa | 0 mm | - | 43 W/m² | - |
| 1778280355 | 20.56° C | 71% | 1024.8 hPa | 0 mm | - | 50 W/m² | - |
| 1778280052 | 20.56° C | 71% | 1024.6 hPa | 0 mm | - | 50 W/m² | - |
| 1778279750 | 20.56° C | 69% | 1024.4 hPa | 0 mm | - | 49 W/m² | - |
| 1778279447 | 20.56° C | 68% | 1024.6 hPa | 0 mm | - | 51 W/m² | - |
| 1778279145 | 21.11° C | 68% | 1024.6 hPa | 0 mm | - | 60 W/m² | - |
| 1778278841 | 21.11° C | 66% | 1024.5 hPa | 0 mm | - | 71 W/m² | - |
| 1778278538 | 21.11° C | 62% | 1024.3 hPa | 0 mm | - | 76 W/m² | - |
| 1778278233 | 21.11° C | 63% | 1024.3 hPa | 0 mm | - | 71 W/m² | - |
| 1778277931 | 21.67° C | 63% | 1024.6 hPa | 0 mm | - | 64 W/m² | - |
| 1778277627 | 21.67° C | 55% | 1024.5 hPa | 0 mm | - | 67 W/m² | - |
| 1778277324 | 21.11° C | 58% | 1024.3 hPa | 0 mm | - | 81 W/m² | - |
| 1778277020 | 21.11° C | 57% | 1024.2 hPa | 0 mm | - | 92 W/m² | - |
| 1778276718 | 21.67° C | 55% | 1024.4 hPa | 0 mm | - | 106 W/m² | - |
| 1778276414 | 21.67° C | 54% | 1024.6 hPa | 0 mm | - | 125 W/m² | - |
| 1778276112 | 21.67° C | 53% | 1024.7 hPa | 0 mm | - | 142 W/m² | - |
| 1778275807 | 21.67° C | 53% | 1024.6 hPa | 0 mm | - | 161 W/m² | - |
| 1778275504 | 21.67° C | 52% | 1024.6 hPa | 0 mm | - | 172 W/m² | - |
| 1778275200 | 21.67° C | 54% | 1024.4 hPa | 0 mm | - | 177 W/m² | - |
| 1778274895 | 21.67° C | 58% | 1024.7 hPa | 0 mm | - | 155 W/m² | - |
| 1778274592 | 21.67° C | 53% | 1024.9 hPa | 0 mm | - | 146 W/m² | - |
| 1778274289 | 21.67° C | 53% | 1024.4 hPa | 0 mm | - | 164 W/m² | - |
| 1778273985 | 21.67° C | 53% | 1024.5 hPa | 0 mm | - | 177 W/m² | - |
| 1778273683 | 21.67° C | 50% | 1024.6 hPa | 0 mm | - | 207 W/m² | - |
* Rain latest hour (hover to see other rain measurements)
** Current wind speed in m/s (hover to see current wind gust speed)